www.pogodaiklimat.ru
ПОГОДА в Ченнаи
Время
(UTC), дата
00 17.10
03 17.10
06 17.10
09 17.10
12 17.10
15 17.10
18 17.10
21 17.10
00 18.10
03 18.10
06 18.10
09 18.10
12 18.10
15 18.10
18 18.10
21 18.10
00 19.10
03 19.10
06 19.10
09 19.10
12 19.10
15 19.10
18 19.10
21 19.10
00 20.10
03 20.10
06 20.10
09 20.10
12 20.10
15 20.10
18 20.10
21 20.10
00 21.10
03 21.10
06 21.10
09 21.10
12 21.10
15 21.10
18 21.10
21 21.10
00 22.10
03 22.10
06 22.10
09 22.10
12 22.10
15 22.10
18 22.10
21 22.10
00 23.10
03 23.10
06 23.10
09 23.10
12 23.10
15 23.10
18 23.10
Ветер
(напр.,м/с)
Видим. Явления Облачность Т
(С)
Тd
(С)
f
(%)
Тe
(С)
Тes
(С)
Комфортность P
(гПа)
Po
(гПа)
Тmin
(С)
Tmax
(С)
R
(мм)
R24
(мм)
S
(см)
штиль 0 4000 м гроза, ливневой дождь 10/6 600 м
[Cb cap As op]
+24.8 +23.6 93 +34 +34 очень
душно
1011.1 1009.3 43
штиль 0 4000 м слаб. дождь {гроза} 10/5 540 м
[Sc As op]
+25.2 +23.4 90 +34 +35 очень
душно
1013.5 1011.7 +24.0 +30.4 53
штиль 0 4000 м слаб. дождь {гроза} 10/5 540 м
[Sc As op]
+24.8 +23.0 90 +33 +35 очень
душно
1012.5 1010.7 6
штиль 0 4000 м {дождь, морось} 10/5 540 м
[Sc Ac As]
+26.4 +24.4 89 +37 +39 очень
душно
1009.4 1007.7 8
штиль 0 4000 м 10/5 540 м
[Sc Ac As]
+26.8 +24.2 86 +37 +38 очень
душно
1009.3 1007.6 +27.6 8
штиль 0 4000 м 6/3 600 м
[Sc Ac trans Ci fib]
+25.0 +22.9 88 +33 +33 очень
душно
1011.6 1009.8 8
штиль 0 4000 м слаб. морось 10/6 600 м
[Sc Ac trans Ci fib]
+25.4 +23.3 88 +34 +34 очень
душно
1012.2 1010.4 8
штиль 0 4000 м слаб. морось 10/6 600 м
[Sc Ac trans Ci fib]
+25.0 +22.9 88 +33 +33 очень
душно
1010.9 1009.1 11
штиль 0 4000 м {морось} 8/4 600 м
[Sc Ac trans Ci fib]
+24.6 +22.0 85 +32 +32 очень
душно
1010.8 1009.0 12
штиль 0 4000 м {морось} 9/4 600 м
[Sc Ac As Ci fib]
+26.6 +24.9 90 +38 +41 очень
душно
1013.0 1011.2 +24.0 +27.6 12
штиль 0 10 км 9/6 600 м
[Cu Sc Ac trans Ci fib]
+29.6 +23.2 69 +40 +46 очень
душно
1012.1 1010.3
штиль 0 10 км 9/6 600 м
[Sc diur, vesp Ac trans Ci fib]
+31.4 +24.3 66 +44 +48 опасность
перегрева
1009.1 1007.4
штиль 0 10 км 9/6 600 м
[Cu Sc Ac trans Ci fib]
+28.6 +24.9 80 +41 +41 опасность
перегрева
1008.9 1007.2 +31.5
штиль 0 4000 м 4/3 600 м
[Sc Ac trans]
+27.2 +24.3 84 +38 +38 очень
душно
1011.7 1010.0
штиль 0 4000 м зарница 6/4 600 м
[Cb cap Ac trans Ci fib]
+26.8 +24.2 86 +37 +37 очень
душно
1012.4 1010.6
штиль 0 4000 м {дождь, морось} 5/4 600 м
[Sc Ac trans]
+25.6 +23.9 90 +35 +35 очень
душно
1010.8 1009.0 2
штиль 0 4000 м {дождь, морось} 6/4 600 м
[Sc Ac trans Ci fib]
+25.4 +23.7 90 +35 +35 очень
душно
1011.2 1009.4 2
штиль 0 10 км 10/5 600 м
[Sc Ac trans]
+27.2 +24.9 87 +39 +40 очень
душно
1013.1 1011.3 +24.6 +31.5 2
штиль 0 4000 м 10/8 600 м
[Sc diur, vesp As op]
+29.8 +24.4 73 +42 +43 опасность
перегрева
1012.9 1011.1
штиль 0 10 км {дождь, морось} 9/5 600 м
[Sc Ac trans Ci fib]
+30.0 +23.7 69 +41 +46 опасность
перегрева
1009.9 1008.2 0.2
СВ 1 4000 м слаб. морось {дождь} 10/5 600 м
[Cb cap Ac trans Cs]
+28.2 +24.2 79 +39 +40 очень
душно
1010.1 1008.4 +30.6 0.2
штиль 0 4000 м слаб. морось {дождь} 10/5 540 м
[Sc Ac As]
+26.8 +24.2 86 +37 +37 очень
душно
1012.0 1010.2 0.7
штиль 0 4000 м {гроза, морось} 9/5 600 м
[Sc Ac As]
+26.0 +24.6 92 +37 +37 очень
душно
1012.2 1010.4 0.8
штиль 0 4000 м 8/5 600 м
[Sc Ac As]
+25.6 +23.6 89 +35 +35 очень
душно
1010.3 1008.5 0.8
штиль 0 4000 м {дождь, морось} 10/5 540 м
[Sc Ac As]
+25.4 +23.7 90 +35 +35 очень
душно
1010.6 1008.8 3
штиль 0 10 км 10/5 600 м
[Sc Ac trans Ci fib]
+26.6 +24.0 86 +37 +39 очень
душно
1013.1 1011.3 +24.8 +30.6 3
штиль 0 10 км слаб. морось {дождь} 10/8 600 м
[Sc diur, vesp As op]
+26.6 +24.6 89 +38 +39 очень
душно
1012.3 1010.5 11
штиль 0 10 км {морось} 10/5 600 м
[Sc Ac trans]
+29.6 +25.1 77 +43 +46 опасность
перегрева
1009.7 1008.0 11
штиль 0 10 км {дождь, морось} 9/5 600 м
[Sc Ac trans]
+27.8 +24.3 81 +39 +39 очень
душно
1008.9 1007.2 +29.9 11
штиль 0 4000 м 6/5 540 м
[Sc Ac trans]
+26.0 +24.9 94 +37 +37 очень
душно
1011.6 1009.9 11
штиль 0 4000 м 5/4 540 м
[Sc Ac trans]
+26.4 +25.0 92 +38 +38 очень
душно
1011.4 1009.7 11
штиль 0 4000 м {дождь, морось} 10/6 540 м
[Sc Ac trans Ci fib]
+24.8 +23.6 93 +34 +34 очень
душно
1009.3 1007.5 34
штиль 0 2000 м слаб. дождь 10/6 540 м
[Cb cap As op]
+24.2 +23.6 96 +33 +33 очень
душно
1010.3 1008.5 63
штиль 0 4000 м слаб. дождь {морось} 10/5 540 м
[Sc As op]
+25.2 +23.4 90 +34 +35 очень
душно
1012.6 1010.8 +23.4 +29.9 65
штиль 0 4000 м слаб. дождь {морось} 10/5 540 м
[Sc diur, vesp As op]
+25.4 +23.3 88 +34 +36 очень
душно
1011.1 1009.3 3
штиль 0 4000 м слаб. морось {дождь} 10/8 540 м
[Sc Ac As]
+26.6 +24.9 90 +38 +39 очень
душно
1007.9 1006.2 3
штиль 0 4000 м {морось} 10/5 540 м
[Cu Sc Ac As]
+26.8 +23.6 83 +37 +37 очень
душно
1008.0 1006.3 +27.3 3
штиль 0 2000 м слаб. морось 10/5 540 м
[Sc As op]
+26.2 +23.6 86 +36 +36 очень
душно
1009.6 1007.9 3
штиль 0 2000 м слаб. дождь {морось} 10/6 540 м
[Sc As op]
+24.8 +22.4 87 +32 +32 очень
душно
1009.5 1007.7 10
штиль 0 2000 м морось {дождь} 10/6 540 м
[Sc As op]
+24.2 +22.1 88 +31 +31 очень
душно
1007.4 1005.6 15
СЗ 1 2000 м слаб. морось 10/5 540 м
[Sc As op]
+24.0 +21.9 88 +31 +31 очень
душно
1007.9 1006.1 16
штиль 0 4000 м слаб. морось {дождь} 10/6 540 м
[Sc Ac As]
+24.9 +23.9 94 +34 +35 очень
душно
1010.2 1008.4 +23.0 +27.3 18
СЗ 1 4000 м слаб. морось 10/8 540 м
[Sc Ac As]
+25.6 +23.3 87 +34 +36 очень
душно
1009.5 1007.7 1
З 2 4000 м {морось} 10/5 540 м
[Sc diur, vesp Ac trans Cs]
+27.0 +23.5 81 +37 +40 очень
душно
1006.9 1005.2 1
СЗ 2 4000 м 9/6 540 м
[Cu Sc Ac As]
+26.8 +23.6 83 +37 +37 очень
душно
1007.0 1005.3 +27.0 1
штиль 0 4000 м 8/4 600 м
[Sc Ac trans Ci fib]
+25.0 +23.2 90 +33 +33 очень
душно
1009.3 1007.5 1
штиль 0 4000 м 8/5 600 м
[Sc Ac trans Ci fib]
+25.0 +23.2 90 +33 +33 очень
душно
1009.1 1007.3 1
штиль 0 4000 м 10/5 600 м
[Sc Ac trans]
+24.8 +23.3 91 +33 +33 очень
душно
1007.2 1005.4 1
штиль 0 4000 м 10/5 600 м
[Sc Ac trans]
+24.8 +23.3 91 +33 +33 очень
душно
1006.9 1005.1 1
СЗ 1 10 км 9/4 600 м
[Sc Ac trans Cs]
+26.8 +23.9 84 +37 +39 очень
душно
1009.1 1007.4 +23.6 +27.0 1
З 1 10 км 9/5 600 м
[Sc Ac trans Cs]
+31.4 +23.6 63 +42 +48 опасность
перегрева
1008.3 1006.6
штиль 0 10 км 9/5 600 м
[Sc Ac trans Cs]
+31.2 +23.1 62 +41 +46 опасность
перегрева
1005.1 1003.4
ЮВ 2 4000 м 9/5 540 м
[Cb calv Ac trans Ci fib]
+29.2 +24.0 74 +41 +41 опасность
перегрева
1005.8 1004.1 +32.2
штиль 0 4000 м {морось} 9/5 600 м
[Cb cap Ac trans]
+27.0 +25.0 89 +39 +39 очень
душно
1008.7 1007.0 0.0
ЮВ 1 4000 м зарница {морось} 10/8 600 м
[Cb cap Ac trans]
+27.4 +25.7 90 +40 +40 очень
душно
1008.8 1007.1 0.0
Местоположение метеостанции Ченнаи (Тамилнад, Индия): широта 13.00 долгота 80.18 высота над уровнем моря 16 м.
В архиве по умолчанию представлена погода в Ченнаи за последнюю неделю. Архивные данные за месяц целиком и за предыдущие месяцы, начиная с января 2011 года, Вы можете получить, выбрав интересующий диапазон дат из раскрывающегося списка и нажав кнопку "Найти!".
*Определитесь, кто Вы:
Внимание! Время в таблицах - всемирное. Для получения местного времени необходимо прибавить поправку, которая равна 5.5 ч.
Смотрите также архив погоды в соседних городах и на ближайших метеорологических станциях:
Партнеры нашего сайта:      
Пояснения к столбцам:
  • Ветер - указаны скорость ветра в м/с - средняя за 10 мин, порывы в срок и между сроками (в фигурных скобках) и направление, откуда дует ветер: С - северный,
  • СВ - северо-восточный, В - восточный, ЮВ - юго-восточный, Ю - южный, ЮЗ - юго-западный, З - западный, СЗ - северо-западный.
  • Видимость - горизонтальная дальность видимости в метрах или километрах. При видимости от 1 до 10 км при отсутствии осадков обычно наблюдается дымка, при ухудшении видимости до 1 км и менее - туман. В сухую погоду видимость может ухудшаться дымом, пылью или мглою.
  • Явления - указаны атмосферные явления, наблюдавшиеся в срок или в последний час перед сроком; фигурными скобками обозначены явления, наблюдавшиеся между сроками (за 1-3 часа до срока); квадратными скобками обозначены град или гололедные отложения с указанием их диаметра в мм.
  • Облачность - указаны через наклонную черту общая и нижняя облачность в баллах и высота нижней границы облаков в метрах; квадратными скобками обозначены формы облаков: Ci - перистые, Cs - перисто-слоистые, Cc - перисто-кучевые, Ac - высококучевые, As - высокослоистые, Sc - слоисто-кучевые, Ns - слоисто-дождевые, Cu - кучевые, Cb - кучево-дождевые. Подробнее классификацию облаков см. в Атласе облаков (PDF).
  • T - Температура воздуха - температура, измеренная на высоте 2 м над землей.
  • Td - Температура точки росы - температура, при понижении до которой содержащийся в воздухе водяной пар достигнет насыщения.
  • f - Относительная влажность воздуха - влажноcть воздуха, измеренная на высоте 2 м над землей.
  • Te - Эффективная температура - температура, которую ощущает одетый по сезону человек в тени. Характеристика душности погоды. При расчете учитывается влияние влажности воздуха и скорости ветра на теплоощущения человека.
  • Tes - Эффективная температура на солнце - температура, которую ощущает человек, с поправкой на солнечный нагрев. Характеристика знойности погоды. Зависит от высоты солнца над горизонтом, облачности и скорости ветра. Ночью, в пасмурную погоду, а также при ветре 12 м/с и более поправка равна нулю.
  • P - Атмосферное давление - приведенное к уровню моря атмосферное давление.
  • Po - Атмосферное давление - измеренное на уровне метеостанции атмосферное давление.
  • Tmin - Минимальная температура - минимум температуры воздуха на высоте 2 м над землей.
  • Tmax - Максимальная температура - максимум температуры воздуха на высоте 2 м над землей.
  • R - Количество осадков - Количество выпавших осадков за период времени, мм. При наведении курсора мыши на число - период времени, за который выпало указанное количество осадков.
  • R24 - Количество осадков - Количество выпавших осадков за 24 часа, мм.
  • S - Снежный покров - Высота снежного покрова, см. При наведении курсора мыши на число - состояние снежного покрова и степень покрытия местности в баллах.